Flag for Saint Vincent and Grenadines Weather past 2 weeks in Kingstown, Saint Vincent and Grenadines

Now
81 °F

Scattered clouds.


Feels Like: 85 °F
Forecast: 79 / 84 °F
Wind: 14 mph from East

Location: Arnos Vale

Current Time: Apr 19, 2015 at 7:57:44 AM

Latest Report: Apr 19, 2015 at 6:00 AM


Visibility: N/A

Pressure: 29.98 "Hg

Humidity: 74%

Dew point: 72 °F

Location of KingstownLocation

Historic Weather in Kingstown — Graph

°F

Kingstown temperature yesterday

Maximum temperature yesterday: 86 °F (at 10:00 AM)
Minimum temperature yesterday: 79 °F (at 6:00 AM)
Average temperature yesterday: 83 °F

Past Weeks' High & Low Weather Summary

 TemperatureHumidityPressure
High86 °F (Apr 13, 2:00 PM)100% (Apr 8, 6:00 AM)30.09 "Hg (Apr 8, 6:00 AM)
Low68 °F (Apr 8, 6:00 AM)62% (Apr 4, 4:00 PM)29.89 "Hg (Apr 4, 4:00 PM)
Average81 °F75%30.00 "Hg
* Reported Apr 4 6:00 AM — Apr 19 6:00 AM, Kingstown, Weather by CustomWeather, © 2015

Note: Actual official high and low records may vary slightly from our data, if they occured in-between our weather recording intervals... More about our weather records

Advertising

Kingstown weather history for previous 24 hours

 ConditionsComfort  
Time TempWeatherWind HumidityBarometerVisibility
6:00 AM
Sun, Apr 19
81 °FScattered clouds.14 mph74%29.98 "HgN/A
10:00 PM
Sat, Apr 18
81 °FPassing clouds.16 mph79%30.01 "HgN/A
9:00 PM81 °FPassing clouds.13 mph79%30.01 "HgN/A
8:00 PM81 °FPassing clouds.13 mph79%29.98 "HgN/A
7:00 PM81 °FPassing clouds.13 mph74%29.98 "HgN/A
6:00 PM82 °FPartly sunny.14 mph74%29.95 "HgN/A
5:00 PM82 °FPartly sunny.13 mph74%29.95 "HgN/A
4:00 PM84 °FPartly sunny.13 mph70%29.95 "HgN/A
3:00 PM86 °FBroken clouds.14 mph70%29.98 "HgN/A
2:00 PM84 °FBroken clouds.15 mph70%30.01 "HgN/A
1:00 PM84 °FBroken clouds.13 mph66%30.01 "HgN/A
12:00 PM84 °FBroken clouds.17 mph70%30.04 "HgN/A
11:00 AM86 °FPartly sunny.15 mph66%30.04 "HgN/A
10:00 AM86 °FScattered clouds.14 mph66%30.04 "HgN/A
9:00 AM84 °FPartly sunny.14 mph66%30.04 "HgN/A
8:00 AM82 °FPartly sunny.13 mph79%30.04 "HgN/A
Weather by CustomWeather, © 2015

See weather overviewHow to use our weather pages